Wind_Speed
2 1 1 0 0 1 1 1 2 3 4 5 5 5 5 6 6 6 6 6 6 6 5 5 5 5 5 6 5 5 5 5 6 6 6 6 6 7 7 8 8 9 9
2 2 1 1 1 1 1 1 1 2 3 4 5 5 5 5 6 6 6 6 6 6 5 5 5 5 5 5 5 5 5 5 4 5 5 6 6 6 6 7 7 8 9
2 2 2 2 2 2 2 2 2 2 3 4 5 5 5 5 6 6 6 6 6 6 5 5 5 5 4 4 4 4 4 4 3 4 4 5 5 5 5 6 6 7 8
2 3 3 3 3 2 2 3 2 3 3 4 5 5 5 6 6 6 6 6 6 6 6 6 6 5 5 4 4 4 3 3 3 2 2 3 4 4 4 5 6 7 7
2 3 3 3 3 3 3 3 3 4 4 4 5 6 6 6 7 7 7 7 8 8 8 7 7 6 6 5 4 4 3 3 2 1 1 2 2 3 3 4 5 5 6
3 3 4 4 4 4 4 4 4 4 5 5 5 6 7 7 7 8 8 8 9 9 9 9 8 8 7 6 5 4 4 3 2 1 1 1 1 2 2 3 4 5 5
3 4 4 4 4 5 5 4 5 5 6 6 6 7 8 8 8 9 9 10 10 10 10 10 10 9 8 7 6 6 5 5 4 3 3 2 2 2 2 3 4 4 4
4 4 5 5 5 6 6 6 6 6 7 7 8 8 9 10 10 10 10 11 11 11 12 12 11 10 9 9 8 8 7 6 6 6 5 5 4 4 4 4 4 4 4
5 5 6 6 6 6 7 8 7 8 8 9 10 10 10 11 11 12 12 13 13 13 13 13 12 12 11 11 10 9 8 8 8 7 7 7 7 6 6 6 5 5 5
6 5 6 7 7 8 8 9 9 10 10 11 11 12 12 13 14 14 14 14 15 15 15 15 15 14 13 12 12 11 10 9 9 9 9 9 8 8 8 8 8 7 7
6 6 6 7 8 9 9 10 11 12 12 13 13 14 14 15 15 15 16 17 16 16 16 16 16 16 15 14 14 13 12 11 11 11 11 11 10 10 10 10 10 9 9
7 7 8 8 9 10 11 12 13 13 13 14 14 14 14 15 16 16 17 18 17 17 17 17 17 17 17 16 15 14 13 12 12 13 13 13 12 12 12 12 12 11 11
8 7 8 7 8 10 11 12 13 14 14 15 15 15 15 16 16 16 16 16 16 16 16 17 17 17 17 17 16 15 15 14 15 15 16 16 16 14 14 14 14 13 13
9 8 7 8 8 9 10 12 12 13 14 14 14 14 14 15 15 16 15 16 15 15 15 15 15 16 16 16 16 16 16 16 15 16 17 17 17 16 16 16 16 16 15
11 9 8 8 9 8 9 11 12 12 12 13 13 14 14 15 15 14 14 14 15 15 15 15 15 15 16 16 17 17 17 18 17 17 18 18 18 17 17 18 19 19 18
11 9 9 8 8 8 8 9 10 10 10 10 11 12 13 13 14 14 14 15 14 16 16 16 16 17 17 17 17 18 18 18 18 18 18 19 20 19 19 19 19 21 22
10 9 8 7 7 8 9 8 9 9 9 10 11 11 11 11 11 12 12 13 14 15 16 16 17 16 17 18 18 19 19 19 20 20 20 20 20 20 20 20 21 21 22
9 8 7 7 7 7 7 7 7 7 7 9 10 10 10 10 10 11 13 13 14 15 15 16 17 18 18 18 19 20 20 21 22 21 21 21 21 21 21 20 21 22 22
7 6 5 4 4 5 6 7 8 7 7 8 9 10 10 10 11 12 13 13 14 15 15 16 18 19 19 19 19 20 21 22 23 23 23 23 22 23 23 23 23 24 23
5 4 2 2 3 4 5 6 7 6 7 8 8 9 10 10 11 12 13 14 15 16 16 17 18 20 20 21 21 22 23 23 24 24 25 25 25 24 24 24 24 25 25
4 3 2 1 3 3 5 6 6 7 8 8 8 9 10 11 11 12 13 14 15 16 17 18 19 21 22 22 22 23 24 24 25 26 26 27 27 27 26 26 26 27 26
4 3 2 0 2 3 4 5 6 7 7 8 9 9 10 10 11 12 13 14 15 16 17 18 19 20 21 22 23 23 24 25 26 26 27 27 28 28 28 28 28 29 28
3 2 1 0 1 3 4 5 6 7 7 8 8 9 10 11 11 12 14 15 16 17 17 18 19 20 21 22 23 24 25 26 26 27 28 28 28 29 29 30 30 30 30
3 3 2 1 2 3 4 5 6 7 7 8 9 10 11 12 13 14 15 16 17 17 18 19 20 20 21 22 23 23 24 25 26 27 28 29 29 30 30 30 31 31 31
3 3 3 3 3 4 4 5 6 7 8 8 9 10 11 12 14 15 16 17 18 19 20 20 21 22 22 23 23 24 24 25 26 27 28 28 29 30 31 32 32 33 32
3 3 4 4 4 4 5 6 6 7 8 9 10 11 13 14 15 16 18 19 20 21 22 23 23 23 23 24 25 25 26 26 26 27 28 29 29 30 31 32 33 34 34
Wind_Direction
288 279 241 263 322 347 7 22 8 1 357 353 350 351 352 352 352 354 359 3 6 9 15 22 27 32 38 41 45 50 54 58 62 68 75 79 84 93 100 108 115 116 117
267 256 233 240 256 268 280 297 317 332 337 337 334 336 341 343 343 344 348 352 355 354 355 2 10 17 24 28 33 40 46 51 58 66 73 79 87 92 98 108 117 119 122
273 243 228 235 248 253 260 269 276 296 316 322 322 324 330 330 330 331 334 338 340 339 336 339 345 351 358 7 15 22 28 36 46 62 70 79 85 91 98 109 120 124 125
255 242 237 239 243 249 255 265 270 283 299 308 313 312 314 319 320 320 320 322 324 324 322 322 325 330 336 342 346 351 359 13 31 51 67 81 87 95 102 112 125 130 131
250 256 255 249 243 246 250 255 264 275 284 295 302 305 306 308 311 313 312 312 313 313 310 310 312 315 317 321 323 325 329 335 352 12 55 86 97 108 115 126 136 139 140
248 259 267 264 246 241 241 245 260 270 276 284 291 294 297 301 305 306 306 305 305 303 301 302 303 305 304 304 304 303 303 300 291 287 270 177 144 138 136 142 150 150 153
242 255 260 260 249 244 244 252 263 273 281 286 286 289 290 293 296 299 301 299 298 296 294 296 298 298 298 296 293 291 287 282 271 257 247 228 208 191 172 163 169 168 167
245 251 254 257 258 255 256 262 268 275 280 285 285 285 287 287 286 290 293 294 293 291 289 289 291 291 291 288 286 284 278 270 263 254 244 236 228 214 202 190 186 184 180
246 255 260 261 265 273 275 272 273 276 281 283 282 283 285 285 282 281 282 286 287 288 286 285 285 285 286 285 283 281 275 266 260 251 245 240 233 224 216 209 202 197 191
241 251 260 260 268 277 280 276 274 275 278 281 281 282 281 282 281 278 277 280 282 281 281 281 280 280 281 281 280 278 274 268 261 254 246 243 237 231 227 221 215 208 202
235 244 251 258 266 276 279 278 275 277 279 282 283 283 282 280 280 280 277 274 277 278 276 277 277 275 277 276 276 275 271 267 260 254 249 245 239 236 235 230 224 217 211
236 236 244 255 266 275 279 279 279 280 282 283 286 287 285 281 279 280 276 274 275 276 274 274 274 274 273 273 273 272 269 268 262 255 249 244 241 237 238 237 231 225 221
230 239 245 254 266 272 277 279 280 280 283 284 287 285 287 284 281 282 282 278 276 275 274 273 274 272 271 273 271 270 268 268 265 259 251 245 243 240 239 239 236 233 229
227 231 246 263 269 275 281 283 282 279 283 286 286 289 290 286 285 284 282 280 273 273 274 275 273 270 269 270 269 269 265 266 266 260 256 251 246 243 243 242 239 237 233
227 234 245 259 266 270 277 281 279 278 282 284 283 286 290 288 286 285 282 276 273 273 275 276 274 273 270 269 268 267 268 268 264 258 254 251 249 250 249 248 243 238 235
228 240 251 251 266 270 275 281 277 276 279 284 286 289 291 286 286 282 279 279 277 275 273 273 274 274 268 267 265 263 266 267 264 259 255 253 251 252 253 250 243 239 236
230 233 241 249 268 275 280 281 284 278 279 284 290 295 294 293 291 284 282 284 279 274 271 271 274 274 272 269 267 265 264 264 266 262 257 253 251 251 253 251 244 239 237
231 227 231 242 259 280 289 302 304 294 289 288 292 296 296 297 296 291 288 287 282 278 274 272 272 273 272 270 268 267 266 267 267 263 258 254 253 251 252 251 244 240 239
209 212 226 232 268 293 304 309 312 304 299 298 299 299 300 300 298 294 292 290 287 284 280 275 274 274 273 273 271 269 267 267 267 262 258 257 255 254 252 250 245 242 241
197 203 208 263 286 296 307 313 323 321 315 312 309 309 308 306 301 299 295 290 289 287 284 280 278 276 274 273 272 270 268 267 265 262 258 256 256 255 253 251 248 245 243
175 174 184 252 297 310 314 314 321 322 318 314 313 313 311 310 307 304 299 296 294 291 288 284 281 278 275 274 272 271 269 267 265 264 260 258 256 256 254 252 250 247 246
148 150 169 248 324 325 319 318 321 323 321 317 316 317 315 311 310 308 307 305 303 300 295 291 287 284 280 277 275 273 271 269 267 265 262 259 257 256 255 254 252 249 248
103 116 133 67 0 338 332 334 336 334 330 329 328 326 327 325 320 317 313 311 309 307 303 298 294 289 286 282 279 275 272 270 268 266 263 260 258 255 254 253 251 249 247
91 75 67 39 12 357 351 347 345 342 341 338 335 334 334 333 329 324 320 318 316 312 308 304 300 295 291 288 284 280 276 272 269 267 265 262 260 257 255 253 250 248 247
75 46 34 29 10 2 357 354 353 348 344 343 341 340 339 336 333 328 324 321 318 315 312 308 303 298 295 292 288 284 280 276 272 269 267 264 261 258 256 253 251 248 246
44 28 17 11 5 3 3 3 358 351 347 345 344 343 341 338 336 332 328 324 320 317 314 310 306 302 298 294 290 287 284 280 276 271 268 266 263 260 257 255 252 249 247
Height
5913 5912 5912 5912 5912 5913 5913 5913 5913 5913 5913 5912 5912 5912 5912 5911 5911 5910 5910 5909 5909 5908 5907 5906 5906 5906 5905 5905 5905 5904 5904 5904 5904 5903 5903 5903 5902 5902 5902 5902 5902 5903 5903
5913 5912 5912 5912 5912 5912 5912 5912 5912 5912 5912 5912 5912 5912 5911 5911 5911 5910 5910 5909 5908 5908 5907 5907 5906 5906 5906 5906 5905 5905 5905 5904 5904 5904 5904 5904 5904 5903 5903 5903 5903 5904 5904
5911 5911 5911 5911 5912 5912 5912 5912 5912 5912 5912 5911 5911 5911 5911 5911 5910 5910 5909 5909 5908 5908 5907 5907 5906 5906 5906 5906 5906 5905 5905 5905 5905 5904 5905 5904 5904 5904 5904 5904 5904 5905 5905
5910 5910 5911 5911 5911 5911 5911 5911 5911 5911 5911 5911 5911 5911 5911 5910 5910 5909 5909 5909 5908 5907 5907 5906 5906 5906 5906 5906 5905 5905 5905 5905 5905 5905 5905 5905 5905 5905 5905 5905 5905 5906 5906
5909 5910 5910 5909 5910 5910 5910 5910 5910 5910 5910 5910 5910 5910 5910 5910 5909 5909 5908 5908 5907 5907 5906 5906 5905 5905 5905 5905 5905 5905 5904 5904 5905 5905 5905 5905 5905 5905 5905 5906 5906 5907 5907
5908 5908 5908 5908 5908 5908 5909 5909 5909 5909 5909 5909 5909 5909 5909 5908 5908 5908 5908 5907 5907 5906 5905 5905 5904 5904 5904 5904 5904 5904 5904 5904 5904 5904 5904 5905 5905 5905 5906 5906 5906 5907 5908
5906 5906 5907 5907 5907 5907 5907 5907 5907 5907 5907 5907 5907 5907 5907 5907 5907 5907 5906 5906 5905 5905 5904 5904 5903 5903 5903 5903 5903 5903 5903 5903 5903 5903 5904 5904 5905 5905 5905 5906 5907 5907 5908
5905 5905 5905 5905 5905 5905 5905 5905 5905 5905 5905 5905 5905 5905 5905 5905 5905 5905 5904 5904 5904 5903 5903 5902 5902 5901 5901 5901 5901 5901 5902 5902 5902 5903 5903 5903 5904 5904 5905 5906 5906 5907 5908
5903 5903 5903 5903 5903 5903 5903 5903 5903 5903 5903 5903 5903 5903 5902 5902 5902 5902 5902 5901 5901 5901 5900 5900 5900 5899 5899 5899 5899 5900 5900 5900 5901 5901 5902 5902 5903 5903 5904 5905 5906 5906 5907
5899 5900 5901 5901 5901 5900 5900 5900 5900 5900 5900 5900 5900 5900 5900 5900 5899 5899 5898 5898 5898 5898 5898 5897 5897 5897 5897 5897 5897 5897 5898 5898 5899 5899 5900 5900 5901 5902 5902 5903 5904 5905 5906
5895 5897 5897 5898 5897 5897 5897 5897 5897 5897 5897 5897 5897 5897 5897 5896 5896 5895 5895 5895 5895 5895 5895 5894 5894 5894 5894 5894 5894 5895 5895 5896 5897 5897 5898 5898 5899 5900 5901 5902 5903 5904 5905
5893 5893 5894 5894 5894 5894 5894 5894 5894 5894 5894 5894 5894 5893 5893 5892 5892 5891 5891 5891 5891 5891 5891 5890 5890 5890 5890 5890 5890 5891 5892 5893 5894 5894 5895 5896 5896 5897 5898 5899 5901 5902 5903
5889 5890 5891 5891 5891 5891 5891 5891 5891 5890 5890 5890 5890 5890 5889 5888 5888 5888 5887 5887 5887 5887 5887 5886 5886 5886 5887 5887 5887 5887 5888 5889 5890 5891 5891 5892 5893 5894 5895 5896 5898 5899 5901
5885 5886 5887 5887 5888 5888 5888 5888 5887 5887 5887 5887 5886 5886 5885 5884 5884 5884 5883 5883 5883 5883 5883 5883 5883 5883 5883 5883 5883 5883 5884 5885 5886 5887 5887 5888 5889 5890 5891 5893 5894 5896 5897
5882 5882 5884 5885 5885 5884 5884 5884 5884 5884 5883 5883 5883 5882 5882 5881 5881 5880 5880 5880 5879 5879 5880 5880 5880 5879 5879 5879 5879 5880 5880 5881 5882 5882 5883 5884 5885 5886 5887 5888 5890 5891 5893
5878 5879 5881 5882 5882 5882 5882 5882 5881 5881 5881 5880 5879 5879 5879 5878 5877 5877 5876 5876 5876 5876 5876 5876 5876 5876 5876 5875 5876 5876 5876 5877 5877 5878 5879 5880 5880 5882 5883 5884 5885 5887 5889
5875 5877 5878 5879 5880 5880 5880 5879 5879 5878 5877 5877 5877 5876 5875 5875 5874 5873 5873 5873 5872 5872 5872 5872 5872 5872 5872 5872 5872 5872 5872 5872 5873 5874 5874 5875 5876 5877 5878 5879 5880 5882 5884
5873 5874 5875 5876 5877 5877 5877 5876 5876 5875 5875 5874 5874 5873 5873 5872 5871 5870 5870 5869 5869 5868 5868 5868 5868 5868 5868 5868 5868 5867 5867 5868 5868 5868 5869 5870 5871 5872 5873 5874 5875 5877 5879
5871 5872 5873 5874 5874 5875 5875 5874 5873 5873 5872 5872 5871 5871 5870 5869 5868 5868 5867 5866 5865 5865 5864 5864 5864 5864 5863 5863 5863 5862 5862 5862 5863 5863 5864 5865 5866 5867 5868 5869 5870 5872 5873
5869 5871 5871 5872 5873 5873 5873 5872 5872 5871 5870 5870 5869 5868 5867 5866 5865 5865 5864 5863 5862 5861 5861 5860 5859 5859 5858 5858 5858 5857 5857 5857 5857 5857 5858 5859 5860 5861 5862 5863 5865 5866 5868
5869 5869 5870 5871 5871 5871 5871 5871 5871 5870 5869 5868 5867 5866 5865 5864 5863 5862 5861 5860 5858 5857 5856 5856 5855 5854 5853 5853 5852 5852 5852 5851 5851 5851 5851 5852 5853 5854 5855 5857 5859 5860 5862
5867 5869 5870 5870 5870 5870 5870 5870 5869 5868 5867 5866 5865 5864 5862 5861 5860 5858 5857 5856 5855 5853 5852 5851 5850 5848 5847 5847 5846 5846 5845 5846 5845 5845 5845 5845 5846 5847 5848 5850 5851 5853 5855
5867 5868 5868 5868 5869 5868 5868 5868 5867 5866 5865 5864 5862 5861 5860 5858 5856 5855 5854 5852 5851 5849 5848 5846 5844 5843 5842 5841 5840 5840 5839 5838 5838 5838 5837 5838 5838 5839 5840 5842 5843 5845 5847
5867 5867 5867 5868 5867 5867 5867 5866 5865 5864 5863 5862 5860 5859 5857 5856 5854 5852 5851 5849 5847 5845 5843 5841 5839 5838 5836 5834 5833 5832 5832 5831 5830 5830 5830 5830 5831 5832 5833 5834 5836 5837 5839
5866 5866 5866 5866 5866 5866 5865 5864 5863 5862 5861 5860 5858 5857 5855 5853 5851 5849 5847 5845 5843 5841 5838 5836 5834 5832 5830 5829 5827 5825 5825 5824 5823 5823 5822 5823 5823 5823 5824 5826 5827 5829 5831
5866 5866 5866 5865 5865 5864 5863 5862 5861 5860 5859 5857 5856 5854 5853 5851 5849 5846 5844 5841 5839 5836 5833 5831 5829 5826 5824 5822 5820 5819 5817 5816 5815 5815 5814 5814 5814 5815 5816 5817 5818 5820 5822